www.pogodaiklimat.ru

Погода и климат >> Архив погоды >> Канада >> Нунавут >> Кеймбридж-Бей


ПОГОДА в Кеймбридж-Бее

  • Прогноз погоды в Кеймбридж-Бее
  • Монитор погоды в Кеймбридж-Бее

АРХИВ ПОГОДЫ в Кеймбридж-Бее

Время (UTC), дата Ветер
(напр.,м/с)
 
Видим.   Явления Облачность Т
(С)
Тd
(С)
f
(%)
Тe
(С)
Тes
(С)
Комфортность P
(гПа)
Po
(гПа)
Тmin
(С)
Tmax
(С)
R
(мм)
R24
(мм)
S
(см)
12 17.01 С 6 н/о н/о -29.2 -32.1 76 -43 -43 опасность
обморожения
1025.4 1022.8 -29.2 -25.0 5
15 17.01 С 8 н/о н/о -28.0 -30.8 77 -43 -43 опасность
обморожения
1025.0 1022.4
18 17.01 С 5 н/о н/о -28.1 -31.0 76 -40 -40 опасность
обморожения
1025.4 1022.8 -29.2 -27.8
21 17.01 С 9 н/о н/о -27.1 -29.9 77 -42 -42 опасность
обморожения
1025.3 1022.7
00 18.01 СЗ 4 н/о н/о -26.8 -29.7 76 -37 -37 опасность
обморожения
1026.6 1024.0 -29.2 -26.5
03 18.01 С 5 н/о н/о -27.8 -30.7 76 -40 -40 опасность
обморожения
1026.6 1024.0
06 18.01 н/о н/о -25.7 -28.4 78 1027.0 1024.4 -29.2 -25.7 20
09 18.01 С 4 н/о н/о -26.7 -29.5 77 -37 -37 опасность
обморожения
1028.4 1025.8
12 18.01 н/о н/о -24.8 -27.3 80 1029.1 1026.5 -29.0 -25.7 5
15 18.01 С 7 н/о н/о -25.5 -28.1 79 -39 -39 опасность
обморожения
1030.0 1027.4
18 18.01 СЗ 5 н/о н/о -26.7 -29.5 77 -39 -39 опасность
обморожения
1031.4 1028.8 -29.0 -24.4
21 18.01 СЗ 6 н/о н/о -27.4 -30.2 77 -40 -40 опасность
обморожения
1031.2 1028.6
00 19.01 З 5 н/о н/о -27.5 -30.5 75 -40 -40 опасность
обморожения
1030.3 1027.7 -28.2 -24.4
03 19.01 З 7 н/о н/о -25.8 -28.5 78 -39 -39 опасность
обморожения
1027.9 1025.3
06 19.01 З 8 н/о н/о -23.0 -25.5 80 -36 -36 опасность
обморожения
1025.2 1022.6 -28.2 -23.0 5
09 19.01 З 10 н/о н/о -21.0 -23.3 82 -35 -35 опасность
обморожения
1023.6 1021.0
12 19.01 СЗ 10 н/о н/о -21.7 -24.0 82 -36 -36 опасность
обморожения
1022.1 1019.5 -28.2 -23.0 5
15 19.01 СЗ 9 н/о н/о -21.1 -23.3 82 -35 -35 опасность
обморожения
1020.2 1017.6
18 19.01 СЗ 7 н/о н/о -20.3 -22.5 83 -32 -32 опасность
обморожения
1018.7 1016.1 -28.2 -20.3
21 19.01 СЗ 7 н/о н/о -20.5 -22.8 82 -32 -32 опасность
обморожения
1017.8 1015.2
00 20.01 СЗ 7 н/о н/о -19.9 -22.1 83 -31 -31 опасность
обморожения
1017.4 1014.8 -23.0 -19.8
03 20.01 З 4 н/о н/о -20.6 -22.9 82 -29 -29 1016.0 1013.5
06 20.01 З 3 н/о н/о -21.2 -23.5 82 -29 -29 1014.9 1012.4 -23.0 -19.8 11
09 20.01 С 2 н/о н/о -21.2 -23.5 82 -27 -27 1013.9 1011.4
12 20.01 СЗ 3 н/о н/о -26.8 -29.6 77 -35 -35 опасность
обморожения
1012.6 1010.0 -26.8 -19.8 5
15 20.01 СЗ 6 н/о н/о -30.5 -33.5 75 -44 -44 опасность
обморожения
1011.3 1008.7 0.8
18 20.01 СЗ 4 н/о н/о -31.2 -34.3 74 -43 -43 опасность
обморожения
1011.0 1008.4 -31.2 -20.8 0.8
21 20.01 СЗ 2 н/о {осадки} н/о -31.3 -34.3 75 -39 -39 опасность
обморожения
1010.7 1008.1 0.2
00 21.01 З 3 н/о {осадки} н/о -32.7 -36.0 72 -43 -43 опасность
обморожения
1010.6 1008.0 -32.7 -26.8 0.2
03 21.01 СЗ 5 н/о н/о -32.9 -36.1 73 -46 -46 опасность
обморожения
1009.9 1007.3
06 21.01 СЗ 7 н/о н/о -32.1 -35.2 74 -47 -47 опасность
обморожения
1009.4 1006.8 -33.2 -20.8 6
09 21.01 СЗ 6 н/о н/о -33.5 -36.7 73 -48 -48 опасность
обморожения
1009.3 1006.7
12 21.01 СЗ 5 н/о н/о -33.8 -37.0 73 -47 -47 опасность
обморожения
1009.3 1006.7 -34.1 -20.8 5
15 21.01 СЗ 5 н/о н/о -33.7 -36.9 73 -47 -47 опасность
обморожения
1009.5 1006.9
18 21.01 СЗ 3 н/о н/о -36.0 -39.4 71 -47 -47 опасность
обморожения
1010.5 1007.9 -36.0 -32.0
21 21.01 С 4 н/о н/о -36.0 -39.4 71 -49 -49 опасность
обморожения
1011.7 1009.1
00 22.01 С 1 н/о н/о -35.8 -39.3 70 -37 -37 опасность
обморожения
1013.0 1010.4 -36.1 -33.1
03 22.01 С 4 н/о н/о -37.4 -40.8 70 -50 -50 опасность
обморожения
1013.2 1010.6
09 22.01 С 3 н/о н/о -36.8 -40.2 71 -48 -48 опасность
обморожения
1014.3 1011.6
12 22.01 СЗ 4 н/о н/о -40.6 -44.2 68 -54 -54 опасность
обморожения
1014.3 1011.6 -40.6 -32.0 5
15 22.01 С 2 н/о н/о -41.0 -44.6 68 -50 -50 опасность
обморожения
1014.3 1011.6
18 22.01 СЗ 4 н/о н/о -40.8 -44.4 68 -54 -54 опасность
обморожения
1015.4 1012.7 -41.3 -36.6
21 22.01 СЗ 5 н/о н/о -40.4 -44.1 67 -56 -56 опасность
обморожения
1016.4 1013.7
00 23.01 СЗ 5 н/о н/о -39.5 -43.0 69 -55 -55 опасность
обморожения
1017.3 1014.6 -41.3 -39.4
03 23.01 СЗ 5 н/о {осадки} н/о -36.2 -39.6 71 -50 -50 опасность
обморожения
1018.2 1015.5 0.5
06 23.01 З 3 н/о {осадки} н/о -36.6 -40.1 70 -47 -47 опасность
обморожения
1018.8 1016.1 -41.3 -35.6 0.5
09 23.01 З 4 н/о н/о -37.4 -41.0 69 -51 -51 опасность
обморожения
1019.2 1016.5
12 23.01 СЗ 5 н/о н/о -37.7 -41.2 70 -52 -52 опасность
обморожения
1019.4 1016.7 -39.5 -35.6 5
15 23.01 СЗ 6 н/о н/о -38.4 -42.0 69 -54 -54 опасность
обморожения
1018.7 1016.0
18 23.01 СЗ 6 н/о н/о -37.9 -41.5 69 -54 -54 опасность
обморожения
1019.1 1016.4 -40.8 -36.0
21 23.01 СЗ 7 н/о н/о -37.9 -41.4 70 -54 -54 опасность
обморожения
1019.7 1017.0
00 24.01 СЗ 8 н/о н/о -37.5 -40.9 70 -55 -55 опасность
обморожения
1020.3 1017.6 -38.5 -37.1
03 24.01 СЗ 5 н/о н/о -36.5 -40.0 70 -50 -50 опасность
обморожения
1020.6 1017.9
06 24.01 СЗ 6 н/о н/о -36.9 -40.3 70 -52 -52 опасность
обморожения
1021.2 1018.5 -38.5 -36.0 0
09 24.01 СЗ 5 н/о н/о -36.7 -40.2 70 -51 -51 опасность
обморожения
1021.8 1019.1

 

Местоположение метеостанции Кеймбридж-Бей (Нунавут, Канада): широта 69.10 долгота -105.10 высота над уровнем моря 19 м.

В архиве по умолчанию представлена погода в Кеймбридж-Бее за последнюю неделю. Архивные данные за месяц целиком и за предыдущие месяцы, начиная с января 2011 года, Вы можете получить, выбрав интересующий диапазон дат из раскрывающегося списка и нажав кнопку "Ввод!".


*Определитесь, кто Вы:
робот инопланетянин человек

Внимание! Время в таблицах - всемирное. Для получения местного времени необходимо прибавить поправку, которая равна -7 ч.

Смотрите также архив погоды в соседних городах и на ближайших метеорологических станциях:

Погода на Мысе Пил-Вест (Нунавут, Канада) (108 км)
Погода на Острове Хат (Нунавут, Канада) (223 км)
Погода в Джойа Хейвен (Нунавут, Канада) (374 км)
Погода в Куглуктуке (Нунавут, Канада) (432 км)
Погода в Куглуктуке (Северо-Западные территории, Канада) (432 км)
Погода в Люпине (Нунавут, Канада) (452 км)
Погода в Саскатуне (Саскачеван, Канада) (452 км)
Погода в Талойоаке (Нунавут, Канада) (454 км)
Погода на Озере Робертсон (Нунавут, Канада) (460 км)
Погода в Шеперд-Бее (Нунавут, Канада) (466 км)

Пояснения к столбцам:

Ветер - указаны скорость ветра в м/с - средняя за 10 мин, порывы в срок и между сроками (в фигурных скобках) и направление, откуда дует ветер: С - северный, СВ - северо-восточный, В - восточный, ЮВ - юго-восточный, Ю - южный, ЮЗ - юго-западный, З - западный, СЗ - северо-западный.
Видимость - горизонтальная дальность видимости в метрах или километрах. При видимости от 1 до 10 км при отсутствии осадков обычно наблюдается дымка, при ухудшении видимости до 1 км и менее - туман. В сухую погоду видимость может ухудшаться дымом, пылью или мглою.
Явления - указаны атмосферные явления, наблюдавшиеся в срок или в последний час перед сроком; фигурными скобками обозначены явления, наблюдавшиеся между сроками (за 1-3 часа до срока); квадратными скобками обозначены град или гололедные отложения с указанием их диаметра в мм.
Облачность - указаны через наклонную черту общая и нижняя облачность в баллах и высота нижней границы облаков в метрах; квадратными скобками обозначены формы облаков: Ci - перистые, Cs - перисто-слоистые, Cc - перисто-кучевые, Ac - высококучевые, As - высокослоистые, Sc - слоисто-кучевые, Ns - слоисто-дождевые, Cu - кучевые, Cb - кучево-дождевые. Подробнее классификацию облаков см. в Атласе облаков (PDF).
T - Температура воздуха - температура, измеренная на высоте 2 м над землей.
Td - Температура точки росы - температура, при понижении до которой содержащийся в воздухе водяной пар достигнет насыщения.
f - Относительная влажность воздуха - влажноcть воздуха, измеренная на высоте 2 м над землей.
Te - Эффективная температура - температура, которую ощущает одетый по сезону человек в тени. Характеристика душности погоды. При расчете учитывается влияние влажности воздуха и скорости ветра на теплоощущения человека.
Tes - Эффективная температура на солнце - температура, которую ощущает человек, с поправкой на солнечный нагрев. Характеристика знойности погоды. Зависит от высоты солнца над горизонтом, облачности и скорости ветра. Ночью, в пасмурную погоду, а также при ветре 12 м/с и более поправка равна нулю.
P - Атмосферное давление - приведенное к уровню моря атмосферное давление.
Po - Атмосферное давление - измеренное на уровне метеостанции атмосферное давление.
Tmin - Минимальная температура - минимум температуры воздуха на высоте 2 м над землей.
Tmax - Максимальная температура - максимум температуры воздуха на высоте 2 м над землей.
R - Количество осадков - Количество выпавших осадков за период времени, мм. При наведении курсора мыши на число - период времени, за который выпало указанное количество осадков.
R24 - Количество осадков - Количество выпавших осадков за 24 часа, мм.
S - Снежный покров - Высота снежного покрова, см. При наведении курсора мыши на число - состояние снежного покрова и степень покрытия местности в баллах.